Location: Lafig�re
(44.4503°N, 4.0357°E)
Time: 16:28:52
(UTC+00:00)

ARGOS - Pass Details

Date: 24 September 2020
Orbit: 821 x 834 km, 98.4° (Epoch: 25 October)

Event Time Altitude Azimuth Distance (km) Brightness Sun altitude
Rises 19:01:44 0° 166° (SSE) 3,340 6.0 -15.8°
Reaches altitude 10° 19:04:03 10° 166° (SSE) 2,413 5.3 -16.2°
Maximum altitude 19:09:25 86° 255° (WSW) 832 3.1 -17.1°
Drops below altitude 10° 19:14:50 10° 346° (NNW) 2,438 6.0 -18.1°
Sets 19:17:12 0° 347° (NNW) 3,377 6.8 -18.5°
